Location: Moscow
(44.4414°N, 72.7154°W)
Time: 22:58:47
(UTC+00:00)

Explorer 11/Cluster Stage 4 - Pass Details

Date: 24 December 2025
Orbit: 463 x 1179 km, 28.8° (Epoch: 23 January)

Event Time Altitude Azimuth Distance (km) Brightness Sun altitude
Rises 22:12:11 0° 251° (WSW) 3,876 12.5 -9.7°
Reaches altitude 10° 22:15:42 10° 235° (SW) 3,001 11.0 -10.3°
Maximum altitude 22:20:49 20° 193° (SSW) 2,417 9.5 -11.1°
Drops below altitude 10° 22:26:04 10° 150° (SSE) 3,087 9.5 -12.0°
Sets 22:29:46 0° 135° (SE) 4,021 10.0 -12.6°
